Regional Weather Roundup
Issued by NWS Newport/Morehead, NC

Home | Current Version | Previous Version | Text Only | Print | Product List | Glossary On
Versions: 1 2 3 4 5 6 7 8 9 10 11 12 13 14 15 16 17 18 19 20 21 22 23 24 25 26 27 28 29 30 31 32 33 34 35 36 37 38 39 40 41 42 43 44 45 46 47 48 49 50
000
ASUS42 KMHX 282025
RWRMHX
WEATHER ROUNDUP FOR EASTERN NORTH CAROLINA
NATIONAL WEATHER SERVICE NEWPORT/MOREHEAD CITY NC
400 PM EDT TUE MAR 28 2017

NOTE: "FAIR" INDICATES FEW OR NO CLOUDS BELOW 12,000 FEET
WITH NO SIGNIFICANT WEATHER AND/OR OBSTRUCTIONS TO VISIBILITY

NCZ015>017-031-032-045>047-102-103-282100-
NORTH COAST

CITY           SKY/WX    TMP DP  RH WIND       PRES   REMARKS
EDENTON        CLOUDY    71  62  73 SW9       29.88F
ELIZABETH CITY MOSUNNY   69  59  70 SW16      29.86F
KITTY HAWK     NOT AVBL
MANTEO         CLOUDY    65  60  86 SW9       29.88F

$$

NCZ045>047-081-094-103-104-282100-
CENTRAL COAST

CITY           SKY/WX    TMP DP  RH WIND       PRES   REMARKS
FRISCO         RAIN      65  60  84 NW5       29.91F VSB 3/4

$$

NCZ095-097-098-100-101-282100-
SOUTHERN COAST

CITY           SKY/WX    TMP DP  RH WIND       PRES   REMARKS
BEAUFORT       CLOUDY    70  63  78 S14       29.89F
CEDAR ISLAND   NOT AVBL
JACKSONVILLE   MOSUNNY   75  63  66 S12       29.86F
PINEY ISLAND   CLOUDY   N/A N/A N/A S9        29.89F
WILMINGTON     MOSUNNY   80  59  48 SW15G25   29.87F


$$

NCZ011>013-027>030-043-044-078>080-089-090>093-098-282100-
COASTAL PLAIN

CITY           SKY/WX    TMP DP  RH WIND       PRES   REMARKS
AHOSKIE          N/A     72  60  64 SW5       29.86F
CLINTON        SUNNY     78  62  57 W7        29.86F
ELIZABETHTOWN  MOSUNNY   82  59  46 W12       29.87F
GOLDSBORO      MOSUNNY   78  63  59 W10       29.84F
GREENVILLE     MOSUNNY   75  63  64 W7        29.89F
HAVELOCK       NOT AVBL
KENANSVILLE    MOSUNNY   79  61  53 W8        29.86F
KINSTON        MOSUNNY   75  63  64 S6        29.88F
NEW BERN       CLOUDY    73  63  70 S13       29.88F
RICHLANDS      MOSUNNY   79  61  53 SW12G17   29.86F
ROCKY MOUNT    MOSUNNY   76  60  57 SW9       29.86F
WASHINGTON     MOSUNNY   72  62  71 SW8       29.88S
WHITEVILLE     MOSUNNY   82  57  42 SW8       29.87F

$$

AMZ130-135-150-152-154-156-158-170-250-252-270-ANZ085-086-088-633-658-670-282100-
MARINE OBSERVATIONS

STATION/POSITION TIME  TEMP    WIND        PRES    WAVE   SWELL
                       AIR SEA DIR/SP/G            HT/PER HT/PER
                 (UTC) (F)     (DEG/KT/KT) (MB)    (FT/S) (FT/S)
CHESAPEAKE LIGHT NOT AVBL
64 E VA BEACH    NOT AVBL
DUCK             2000   67 48  210/ 13/ 17 1011.1
2 E DUCK         NOT AVBL
OREGON INLET     2000   62 61  200/ 11/ 12 1011.8
13E OREGON INLT  NOT AVBL
HATTERAS CG      2000   63 62  280/ 10/ 15 1012.9
DIAMOND BUOY     NOT AVBL
CAPE LOOKOUT     2000   70     210/ 10/ 13 1012.3
BEAUFORT LAB     2000   67 61  200/ 11/ 14 1011.3
30 SE NEW RVR IN NOT AVBL
30 SE NEW RVR IN NOT AVBL
27 SE WRIGHTSVLE NOT AVBL
5 SE WRIGHTSVLE  NOT AVBL
225 S CAPE HAT   NOT AVBL
41 SE CHARLESTON NOT AVBL

$$



USA.gov is the U.S. government's official web portal to all federal, state and local government web resources and services.